Regional Weather Roundup
Issued by NWS Sioux Falls, SD

Home | Current Version | Previous Version | Graphics & Text | Print | Product List | Glossary On
Versions: 1 2 3 4 5 6 7 8 9 10 11 12 13 14 15 16 17 18 19 20 21 22 23 24 25 26 27 28 29 30 31 32 33 34 35 36 37 38 39 40 41 42 43 44 45 46 47 48 49 50
000
ASUS43 KFSD 291710
RWRFSD

WEATHER ROUNDUP FOR SE SOUTH DAKOTA/SW MINNESOTA/NW IOWA
NATIONAL WEATHER SERVICE SIOUX FALLS SD
1200 PM CDT FRI APR 29 2016

NOTE: "FAIR" INDICATES FEW OR NO CLOUDS BELOW 12,000 FEET WITH NO
SIGNIFICANT WEATHER AND OR OBSTRUCTIONS TO VISIBILITY.


SDZ038>040-050-052>070-291800-
SOUTHEAST SOUTH DAKOTA

CITY           SKY/WX    TMP DP  RH WIND       PRES   REMARKS
BROOKINGS      CLOUDY    46  39  76 NE14G22   30.12S
CHAMBERLAIN    CLOUDY    46  40  80 E10G16    30.10S
HURON          PTSUNNY   50  39  66 NE13G21   30.12F
MADISON        CLOUDY    45  45 100 E18       30.12R
MITCHELL       CLOUDY    47  39  74 E16       30.13S
SIOUX FALLS    CLOUDY    44  38  79 E12       30.14R
WINNER         CLOUDY    42  36  79 E12       30.09R
YANKTON        CLOUDY    43  37  81 E14       30.13R
$$

MNZ071-072-080-081-089-090-097-098-291800-
SOUTHWEST MINNESOTA

CITY           SKY/WX    TMP DP  RH WIND       PRES   REMARKS
FAIRMONT       PTSUNNY   46  36  66 NE14      30.14R
JACKSON        CLOUDY    45  37  76 NE10      30.15R
LUVERNE        PTSUNNY   43  36  75 E18       30.14R
MARSHALL       CLOUDY    47  39  74 NE16      30.15F
MONTEVIDEO     PTSUNNY   52  43  71 E9        30.17F
PIPESTONE      PTSUNNY   45  37  76 E15G21    30.12R
REDWOOD FALLS  PTSUNNY   50  38  63 N9        30.15S
TRACY          PTSUNNY   47  41  78 NE14      30.15S
WINDOM         PTSUNNY   48  39  71 NE13      30.14R
WORTHINGTON    CLOUDY    44  38  79 E16       30.14R
$$

IAZ001>003-012>014-020>022-031-032-NEZ013-014-SDZ071-291800-
NORTHWEST IOWA

CITY           SKY/WX    TMP DP  RH WIND       PRES   REMARKS
CHEROKEE       CLOUDY    44  41  89 E10       30.14R
DENISON        CLOUDY    45  41  87 E10       30.09F
ESTHERVILLE    CLOUDY    44  39  82 NE13      30.14R
LE MARS        CLOUDY    43  39  87 E8        30.15R
ORANGE CITY    CLOUDY    43  37  81 E8        30.14R
SHELDON        CLOUDY    43  39  87 E13G22    30.13R
SIOUX CITY     CLOUDY    46  39  76 E10       30.14R
SPENCER        CLOUDY    45  38  76 E16       30.15R
STORM LAKE     CLOUDY    43  39  87 E17       30.14R
$$

ABBREVIATIONS USED IN REMARKS
   TC - TEMPERATURE IN CELSIUS
  WCI - WIND CHILL INDEX
   HX - HEAT INDEX
  VSB - VISIBILITY





USA.gov is the U.S. government's official web portal to all federal, state and local government web resources and services.